Regional Weather Roundup
Issued by NWS Bismarck, ND

Home | Current Version | Previous Version | Text Only | Print | Product List | Glossary On
Versions: 1 2 3 4 5 6 7 8 9 10 11 12 13 14 15 16 17 18 19 20 21 22 23 24 25 26 27 28 29 30 31 32 33 34 35 36 37 38 39 40 41 42 43 44 45 46 47 48 49 50
000
ASUS43 KBIS 290020
RWRBIS

NWR BROADCAST TEXT
NATIONAL WEATHER SERVICE BISMARCK ND
700 PM CDT THU AUG 28 2014

NOTE: "FAIR" INDICATES FEW OR NO CLOUDS BELOW 12,000 FEET WITH NO
SIGNIFICANT WEATHER AND/OR OBSTRUCTIONS TO VISIBILITY.


CITY           SKY/WX    TMP DP  RH WIND       PRES   REMARKS
WILLISTON      CLOUDY    89  50  26 NW5       29.76F
MINOT          MOSUNNY   83  58  42 S13       29.77F
MINOT AFB      MOSUNNY   83  61  46 S8        29.76F
BISMARCK       CLOUDY    73  67  81 SE7       29.85F
DICKINSON      MOSUNNY   84  53  34 NW5       29.83F
GARRISON         N/A     79  64  60 S9        29.81F
HETTINGER ARPT PTSUNNY   78  57  48 SE6       29.88S
JAMESTOWN      CLOUDY    68  65  90 SE9       29.86F
BEACH            N/A     81  57  44 NW3       29.85F
CARRINGTON     MOCLDY    70  70 100 S12       29.87S
CROSBY         FAIR      86  54  32 W9        29.74F
HARVEY         FAIR      73  66  78 SW6       29.83F
HAZEN          FAIR      79  59  50 S8        29.81F
LINTON         MOCLDY    70  68  94 S6        29.87S
MANDAN         FAIR      72  66  83 S7        29.86F
OAKES            N/A     66  66 100 E10       29.87F FOG
RUGBY          FAIR      75  68  78 S9        29.80F
STANLEY        FAIR      82  59  44 S8        29.79F
TIOGA          FAIR      84  54  34 SW12      29.80F
WATFORD CITY   FAIR      88  50  27 SW8       29.76F
$$

CITY           SKY/WX    TMP DP  RH WIND       PRES   REMARKS
GRAND FORKS    CLOUDY    71  65  81 S14       29.85F
GRAND FORKS AF PTSUNNY   70  70 100 S10       29.86S
DEVILS LAKE    CLOUDY    73  64  73 S10       29.82S
FARGO          LGT RAIN  68  64  87 SE10      29.89S
CANDO          FAIR      75  66  73 S9        29.82F
CAVALIER       FAIR      75  68  78 S13       29.81F
GRAFTON        MOCLDY    72  66  83 S15       29.84S
GWINNER        CLOUDY    66  66 100 SE10      29.89F
LANGDON        FAIR      73  66  78 S10G17    29.83S
ROLLA          FAIR      75  64  69 S14G20    29.82F
WALHALLA         N/A     75  70  83 S8        29.80S
$$

CITY           SKY/WX    TMP DP  RH WIND       PRES   REMARKS
ABERDEEN       HVY RAIN  67  67 100 E8        29.86S FOG
MOBRIDGE       CLOUDY    70  68  93 NE3       29.85S
BUFFALO          N/A     85  48  27 N8        29.83S
RAPID CITY     CLOUDY    76  57  51 CALM      29.92F
GLASGOW        SUNNY     86  47  25 NW10      29.81S
SIDNEY           N/A    N/A N/A N/A W5        29.79F
WOLF POINT     MOSUNNY   87  50  27 W13G21    29.79F
GLENDIVE       SUNNY     82  55  39 W6        29.83F
MILES CITY     MOSUNNY   88  43  20 W16       29.84F
BAKER          SUNNY     85  47  26 W9        29.88F
$$

CITY           SKY/WX    TMP DP  RH WIND       PRES   REMARKS
BILLINGS       MOSUNNY   87  43  21 N3        29.92F
GREAT FALLS    MOSUNNY   85  39  19 SW18      29.88F
REGINA         PTSUNNY   75  55  50 N21G26    29.78R
ESTEVAN        MOSUNNY   82  63  51 W3        29.74S
$$



USA.gov is the U.S. government's official web portal to all federal, state and local government web resources and services.